Flag for Germany Weather past 2 weeks in Sonneberg, Thuringia, Germany

Now
44 °F

Overcast.


Feels Like: 44 °F
Forecast: 44 / 62 °F
Wind: 1 mph from West

Location: Hof

Current Time: May 23, 2015 at 2:17:59 AM

Latest Report: May 23, 2015 at 2:00 AM


Visibility: 17 mi

Pressure: 30.21 "Hg

Humidity: 80%

Dew point: 38 °F

Location of SonnebergLocation

Historic Weather in Sonneberg — Graph

°F

Sonneberg temperature yesterday

Maximum temperature yesterday: 60 °F (at 4:00 PM)
Minimum temperature yesterday: 36 °F (at 6:00 AM)
Average temperature yesterday: 50 °F

Past Weeks' High & Low Weather Summary

 TemperatureHumidityPressure
High77 °F (May 12, 6:00 PM)100% (May 21, 2:00 AM)30.40 "Hg (May 21, 2:00 AM)
Low36 °F (May 22, 6:00 AM)30% (May 13, 2:00 PM)29.68 "Hg (May 18, 8:00 PM)
Average53 °F64%30.07 "Hg
* Reported May 8 1:00 AM — May 23 1:00 AM, Sonneberg, Weather by CustomWeather, © 2015

Note: Actual official high and low records may vary slightly from our data, if they occured in-between our weather recording intervals... More about our weather records

Advertising

Sonneberg weather history for previous 24 hours

 ConditionsComfort  
Time TempWeatherWind HumidityBarometerVisibility
1:00 AM
Sat, May 23
44 °FOvercast.1 mph79%30.22 "Hg19 mi
12:00 AM48 °FOvercast.1 mph68%30.22 "Hg22 mi
11:00 PM
Fri, May 22
49 °FOvercast.1 mph64%30.22 "Hg22 mi
10:00 PM51 °FOvercast.1 mph60%30.21 "Hg25 mi
9:00 PM54 °FOvercast.2 mph53%30.19 "Hg25 mi
8:00 PM57 °FOvercast.3 mph46%30.18 "Hg28 mi
7:00 PM59 °FOvercast.3 mph41%30.17 "Hg31 mi
6:00 PM60 °FOvercast.3 mph39%30.18 "Hg31 mi
5:00 PM60 °FOvercast.5 mph38%30.19 "Hg28 mi
4:00 PM60 °FOvercast.3 mph39%30.21 "Hg22 mi
3:00 PM58 °FOvercast.3 mph40%30.23 "Hg19 mi
2:00 PM59 °FOvercast.3 mph41%30.24 "Hg25 mi
1:00 PM55 °FOvercast.3 mph43%30.27 "Hg22 mi
12:00 PM57 °FOvercast.5 mph44%30.29 "Hg22 mi
10:00 AM52 °FSunny.2 mph53%30.32 "Hg19 mi
9:00 AM50 °FSunny.2 mph57%30.33 "Hg16 mi
8:00 AM47 °FSunny.1 mph71%30.34 "Hg17 mi
7:00 AM39 °FSunny.1 mph85%30.37 "Hg12 mi
6:00 AM36 °FSunny.1 mph91%30.38 "Hg15 mi
4:00 AM38 °FClear.1 mph85%30.37 "Hg19 mi
3:00 AM40 °FClear.1 mph83%30.36 "Hg19 mi
2:00 AM41 °FPassing clouds.1 mph80%30.36 "Hg22 mi
Weather by CustomWeather, © 2015

See weather overviewHow to use our weather pages